STARLINK-33550, 62285

Orbit data source: Space-Track

STARLINK-33550, 62285 is a payload satellite owned by SpaceX/Seattle (US) in LEO that was launched on Sun, 08 Dec 2024 UTC via an FALCON 9 launch vehicle from the Air Force Eastern Test Range (AFETR). Payload-class satellites include a variety of spacecraft equipped with specific instruments for various scientific and technological missions. These include communications satellites like Starlink; space stations such as the ISS; scientific satellites like the Hubble; Earth observation satellites from companies like Planet Labs, Umbra, and HawkEye 360; GPS; miniature CubeSats for education and research; and military/defense satellites.

Loading next visibility...
Identifier
62285, 2024-237U
Orbit
LEO
Country
Flag of USUS
Related business
Manufacturer
SpaceX/Seattle
Mission
Operational Commercial Communications
Bus & Motor
STARLINK V2MO, Unknown motor
Mass
530 kg wet, ~500 kg dry
Launch date (UTC)
2024-12-08 (2 years ago)
Launch vehicle
FALCON 9
Launch site
Air Force Eastern Test Range (AFETR)
Object type
Payload
Rocket body
Debris
Shape & HBR
Box + 2 Pan, 17.7 m
Radar Cross Section
36.964 m², Large (>1 m²)

Expand to show TLE details & history
Last TLE update: 1 day ago

TLE from 1 day ago
0 STARLINK-33550
1 62285U 24237U   26170.56885032  .00011353  00000-0  42130-3 0  9990
2 62285  42.9997   0.9446 0000839 269.7625  90.3131 15.27591491 86774
Epoch: 2026-06-19T13:39Z
TLE epoch observation values (Epoch: 2026-06-19T13:39:08.667Z)
Latitude
0.00001°
Longitude
-111.63745°
Altitude
482.793 km
Speed
7.626 km/s
True Right ascension
00h 03m 46s
True Declination
0° 00' 00"
Sunlit
Object was in daylight at epoch
Visualization orbit readout
Latitude
Unknown
Longitude
Unknown
Altitude
Unknown
Speed
Unknown
Apparent Right ascension
Unknown
Apparent Declination
Unknown
Sunlit
N/A
Visualization observer readout
Local Sidereal Time
07:23:29
Azimuth
Unknown
Elevation
Unknown
Doppler factor
Unknown
Orbital elements
Apogee altitude
485.536 km
Perigee altitude
484.384 km
Semi-major axis
6,863.097 km
Eccentricity
0.00008
Inclination
42.9997°
RAAN
0.9446°
Arg. of periapsis
269.7625°
True anomaly
90.32271°
Mean anomaly
90.3131°
Eccentric anomaly
90.31791°
Mean motion
3.81736 °/min
Orbital period
94.31 mins
BSTAR
0.0004213
Loading maneuver chart data...
Computing Atmospheric mass density...
Loading historical data...
Loading historical data...
Loading historical data...
Loading historical data...
Loading historical data...
Loading historical data...
Loading historical data...

Documentation

Showing up to 5 results
|